Home > Weather > Quispamsis > Past weeks

Flag for Canada Past Weather in Quispamsis, New Brunswick, Canada — Yesterday and Last 2 Weeks

Now
73 °F

Scattered clouds.


Feels Like: 76 °F
Forecast: N/A
Wind: 7 mph from Southwest

Location: Saint John

Current Time: Jul 30, 2016 at 7:50:30 PM

Latest Report: Jul 30, 2016 at 7:00 PM


Visibility: 15 mi

Pressure: 29.98 "Hg

Humidity: 61%

Dew Point: 59 °F

Location of QuispamsisLocation

Past Weather in Quispamsis — Graph

°F

Quispamsis Temperature Yesterday

Maximum temperature yesterday: 73 °F (at 3:00 PM)
Minimum temperature yesterday: 61 °F (at 2:00 AM)
Average temperature yesterday: 65 °F

High & Low Weather Summary for the Past Weeks

 TemperatureHumidityPressure
High86 °F (Jul 24, 4:00 PM)100% (Jul 15, 9:00 PM)30.17 "Hg (Jul 15, 9:00 PM)
Low48 °F (Jul 21, 6:00 AM)38% (Jul 19, 5:00 PM)29.65 "Hg (Jul 22, 7:00 PM)
Average66 °F84%29.89 "Hg
* Reported Jul 15 6:00 PM — Jul 30 6:00 PM, Quispamsis, Weather by CustomWeather, © 2016

Note: Actual official high and low records may vary slightly from our data, if they occured in-between our weather recording intervals... More about our weather records

Advertising

Quispamsis Weather History for the Previous 24 Hours

Scroll right to see more
 ConditionsComfort  
Time TempWeatherWind HumidityBarometerVisibility
6:00 PM
Sat, Jul 30
75 °FPartly sunny.10 mph61%29.98 "Hg15 mi
5:00 PM79 °FPartly sunny.8 mph54%29.98 "Hg15 mi
4:00 PM79 °FPartly sunny.12 mph58%29.97 "Hg15 mi
3:00 PM79 °FPartly sunny.5 mph58%29.96 "Hg15 mi
2:00 PM79 °FPartly sunny.10 mph51%29.96 "Hg15 mi
1:00 PM77 °FPartly sunny.9 mph54%29.96 "Hg15 mi
12:00 PM79 °FBroken clouds.9 mph51%29.96 "Hg15 mi
11:00 AM75 °FPassing clouds.8 mph61%29.96 "Hg15 mi
10:00 AM73 °FPassing clouds.8 mph65%29.95 "Hg15 mi
9:00 AM70 °FPassing clouds.9 mph78%29.94 "Hg15 mi
8:00 AM66 °FBroken clouds.10 mph94%29.93 "Hg15 mi
7:00 AM64 °FFog.10 mph100%29.91 "Hg1 mi
6:00 AM64 °FFog.9 mph100%29.89 "Hg1 mi
5:00 AM61 °FPassing clouds.5 mph100%29.88 "Hg15 mi
4:00 AM64 °FPassing clouds.5 mph100%29.87 "Hg15 mi
3:00 AM63 °FOvercast.No wind100%29.87 "Hg15 mi
2:00 AM63 °FOvercast.2 mph100%29.88 "Hg15 mi
1:00 AM63 °FLow clouds.No wind100%29.89 "Hg15 mi
12:00 AM63 °FMostly cloudy.2 mph100%29.89 "Hg10 mi
11:00 PM
Fri, Jul 29
63 °FFog.3 mph100%29.90 "Hg4 mi
10:00 PM63 °FFog.3 mph94%29.90 "Hg3 mi
9:00 PM66 °FMostly cloudy.5 mph94%29.89 "Hg15 mi
8:00 PM68 °FMore clouds than sun.6 mph94%29.88 "Hg15 mi
7:00 PM72 °FOvercast.6 mph88%29.88 "Hg15 mi
Weather by CustomWeather, © 2016

See weather overviewHow to use our weather pages